,,,PA_Meas_PMT16A,,PR_Meas_QMR101_102,,RH_Meas_QMH101,,SR_Meas_QMS101,,TA_Meas_QMH101,,GenWind,,GenWind,
date,time,status,PA,status,PR,status,RH,status,SR,status,TA,status,DirAvg,status,SpdAvg,
2010-02-04, 00:00:04,VALID,1002.89,VALID,0,VALID,87.5804,VALID,0,VALID,24.1891,VALID,108,VALID,2.10352,
2010-02-04, 00:01:04,VALID,1002.87,VALID,0,VALID,87.7025,VALID,0,VALID,24.1482,VALID,97,VALID,2.32891,
2010-02-04, 00:02:04,VALID,1002.86,VALID,0,VALID,87.7406,VALID,0,VALID,24.1714,VALID,97,VALID,2.64023,
2010-02-04, 00:03:04,VALID,1002.87,VALID,0,VALID,87.8093,VALID,0,VALID,24.1696,VALID,101,VALID,2.06328,
2010-02-04, 00:04:04,VALID,1002.87,VALID,0,VALID,87.6338,VALID,0,VALID,24.1696,VALID,104,VALID,2.39805,
2010-02-04, 00:05:04,VALID,1002.86,VALID,0,VALID,87.4583,VALID,0,VALID,24.1696,VALID,102,VALID,2.68086,
2010-02-04, 00:06:04,VALID,1002.84,VALID,0,VALID,87.3744,VALID,0,VALID,24.1696,VALID,99,VALID,2.21172,
2010-02-04, 00:07:04,VALID,1002.81,VALID,0,VALID,87.4507,VALID,0,VALID,24.2086,VALID,97,VALID,2.28555,
2010-02-04, 00:08:04,VALID,1002.8,VALID,0,VALID,87.588,VALID,0,VALID,24.2086,VALID,111,VALID,1.95352,
2010-02-04, 00:09:04,VALID,1002.84,VALID,0,VALID,87.7711,VALID,0,VALID,24.2281,VALID,102,VALID,1.71055,
2010-02-04, 00:10:04,VALID,1002.81,VALID,0,VALID,87.7406,VALID,0,VALID,24.2281,VALID,102,VALID,1.275,
2010-02-04, 00:11:04,VALID,1002.82,VALID,0,VALID,87.7025,VALID,0,VALID,24.2086,VALID,108,VALID,1.1625,
2010-02-04, 00:12:04,VALID,1002.8,VALID,0,VALID,87.6414,VALID,0,VALID,24.2086,VALID,120,VALID,1.22266,
2010-02-04, 00:13:04,VALID,1002.78,VALID,0,VALID,87.8398,VALID,0,VALID,24.2086,VALID,116,VALID,0.735937,
2010-02-04, 00:14:04,VALID,1002.77,VALID,0,VALID,87.8322,VALID,0,VALID,24.2086,VALID,113,VALID,1.02695,
2010-02-04, 00:15:04,VALID,1002.8,VALID,0,VALID,87.733,VALID,0,VALID,24.1872,VALID,114,VALID,1.08867,
2010-02-04, 00:16:04,VALID,1002.78,VALID,0,VALID,87.7177,VALID,0,VALID,24.2281,VALID,132,VALID,0.894141,
2010-02-04, 00:17:04,VALID,1002.74,VALID,0,VALID,87.878,VALID,0,VALID,24.2299,VALID,148,VALID,0.544922,
2010-02-04, 00:18:04,VALID,1002.76,VALID,0,VALID,88.0763,VALID,0,VALID,24.2086,VALID,103,VALID,1.25156,
2010-02-04, 00:19:04,VALID,1002.77,VALID,0,VALID,88.0992,VALID,0,VALID,24.2281,VALID,133,VALID,0.761719,
2010-02-04, 00:20:04,VALID,1002.77,VALID,0,VALID,88.3281,VALID,0,VALID,24.2495,VALID,132,VALID,0.229297,
2010-02-04, 00:21:04,VALID,1002.76,VALID,0,VALID,88.4426,VALID,0,VALID,24.2299,VALID,128,VALID,0.883594,
2010-02-04, 00:22:04,VALID,1002.76,VALID,0,VALID,88.2747,VALID,0,VALID,24.2281,VALID,147,VALID,0.582031,
2010-02-04, 00:23:04,VALID,1002.8,VALID,0,VALID,88.3892,VALID,0,VALID,24.2281,VALID,121,VALID,0.820703,
2010-02-04, 00:24:04,VALID,1002.78,VALID,0,VALID,88.5036,VALID,0,VALID,24.2476,VALID,104,VALID,0.703906,
2010-02-04, 00:25:04,VALID,1002.75,VALID,0,VALID,88.5112,VALID,0,VALID,24.2671,VALID,113,VALID,0.184375,
2010-02-04, 00:26:04,VALID,1002.76,VALID,0,VALID,88.5112,VALID,0,VALID,24.2476,VALID,113,VALID,0.00117188,
2010-02-04, 00:27:04,VALID,1002.75,VALID,0,VALID,88.5799,VALID,0,VALID,24.2476,VALID,113,VALID,0.0597656,
2010-02-04, 00:28:04,VALID,1002.76,VALID,0,VALID,88.6562,VALID,0,VALID,24.2281,VALID,113,VALID,0,
2010-02-04, 00:29:04,VALID,1002.74,VALID,0,VALID,88.6714,VALID,0,VALID,24.2476,VALID,113,VALID,0.0929687,
2010-02-04, 00:30:04,VALID,1002.73,VALID,0,VALID,88.7401,VALID,0,VALID,24.2476,VALID,86,VALID,0.4875,
2010-02-04, 00:31:04,VALID,1002.72,VALID,0,VALID,88.6028,VALID,0,VALID,24.2476,VALID,85,VALID,0.419922,
2010-02-04, 00:32:04,VALID,1002.7,VALID,0,VALID,88.7096,VALID,0,VALID,24.269,VALID,85,VALID,0,
2010-02-04, 00:33:04,VALID,1002.66,VALID,0,VALID,89.1826,VALID,0,VALID,24.2476,VALID,85,VALID,0,
2010-02-04, 00:34:04,VALID,1002.65,VALID,0,VALID,89.3047,VALID,0,VALID,24.2476,VALID,85,VALID,0,
2010-02-04, 00:35:04,VALID,1002.64,VALID,0,VALID,89.4878,VALID,0,VALID,24.2086,VALID,85,VALID,0,
2010-02-04, 00:36:04,VALID,1002.59,VALID,0,VALID,89.526,VALID,0,VALID,24.1696,VALID,85,VALID,0,
2010-02-04, 00:37:04,VALID,1002.58,VALID,0,VALID,89.5946,VALID,0,VALID,24.15,VALID,85,VALID,0,
2010-02-04, 00:38:04,VALID,1002.54,VALID,0,VALID,89.9685,VALID,0,VALID,24.1305,VALID,85,VALID,0,
2010-02-04, 00:39:04,VALID,1002.52,VALID,0,VALID,89.793,VALID,0,VALID,24.1305,VALID,105,VALID,0,
2010-02-04, 00:40:04,VALID,1002.5,VALID,0,VALID,89.3734,VALID,0,VALID,24.072,VALID,132,VALID,1.15508,
2010-02-04, 00:41:04,VALID,1002.44,VALID,0,VALID,89.1063,VALID,0,VALID,24.072,VALID,146,VALID,1.30352,
2010-02-04, 00:42:04,VALID,1002.45,VALID,0,VALID,88.8851,VALID,0,VALID,24.0525,VALID,138,VALID,1.30586,
2010-02-04, 00:43:04,VALID,1002.43,VALID,0,VALID,88.6638,VALID,0,VALID,24.0329,VALID,138,VALID,1.21328,
2010-02-04, 00:44:04,VALID,1002.44,VALID,0,VALID,88.6943,VALID,0,VALID,24.0329,VALID,136,VALID,1.11602,
2010-02-04, 00:45:04,VALID,1002.42,VALID,0,VALID,88.5494,VALID,0,VALID,24.0329,VALID,145,VALID,1.04336,
2010-02-04, 00:46:04,VALID,1002.44,VALID,0,VALID,88.6333,VALID,0,VALID,23.9939,VALID,147,VALID,0.79375,
2010-02-04, 00:47:04,VALID,1002.45,VALID,0,VALID,88.6791,VALID,0,VALID,23.9726,VALID,160,VALID,0.778516,
2010-02-04, 00:48:04,VALID,1002.43,VALID,0,VALID,89.0453,VALID,0,VALID,23.9939,VALID,163,VALID,0.55625,
2010-02-04, 00:49:04,VALID,1002.43,VALID,0,VALID,88.969,VALID,0,VALID,23.9726,VALID,170,VALID,0.823438,
2010-02-04, 00:50:04,VALID,1002.45,VALID,0,VALID,88.7554,VALID,0,VALID,23.9939,VALID,184,VALID,1.02578,
2010-02-04, 00:51:04,VALID,1002.43,VALID,0,VALID,88.4807,VALID,0,VALID,23.9744,VALID,185,VALID,1.0582,
2010-02-04, 00:52:04,VALID,1002.43,VALID,0,VALID,88.3434,VALID,0,VALID,24.0134,VALID,185,VALID,1.11367,
2010-02-04, 00:53:04,VALID,1002.43,VALID,0,VALID,88.4731,VALID,0,VALID,24.0329,VALID,182,VALID,1.18398,
2010-02-04, 00:54:04,VALID,1002.44,VALID,0,VALID,88.0534,VALID,0,VALID,24.0329,VALID,186,VALID,1.41641,
2010-02-04, 00:55:04,VALID,1002.45,VALID,0,VALID,87.9848,VALID,0,VALID,24.0329,VALID,195,VALID,1.22109,
2010-02-04, 00:56:04,VALID,1002.48,VALID,0,VALID,87.8703,VALID,0,VALID,24.0506,VALID,197,VALID,1.07305,
2010-02-04, 00:57:04,VALID,1002.45,VALID,0,VALID,87.9237,VALID,0,VALID,24.072,VALID,196,VALID,1.01133,
2010-02-04, 00:58:04,VALID,1002.46,VALID,0,VALID,88.1603,VALID,0,VALID,24.072,VALID,194,VALID,0.775781,
2010-02-04, 00:59:04,VALID,1002.48,VALID,0,VALID,88.0153,VALID,0,VALID,24.072,VALID,197,VALID,0.514453,
2010-02-04, 01:00:04,VALID,1002.43,VALID,0,VALID,87.9466,VALID,0,VALID,24.0311,VALID,200,VALID,0.375,
2010-02-04, 01:01:04,VALID,1002.44,VALID,0,VALID,87.939,VALID,0,VALID,24.072,VALID,215,VALID,0.580859,
2010-02-04, 01:02:04,VALID,1002.45,VALID,0,VALID,87.9924,VALID,0,VALID,24.072,VALID,215,VALID,0.176563,
2010-02-04, 01:03:04,VALID,1002.42,VALID,0,VALID,88.1832,VALID,0,VALID,24.072,VALID,215,VALID,0,
2010-02-04, 01:04:04,VALID,1002.43,VALID,0,VALID,88.3968,VALID,0,VALID,24.0329,VALID,215,VALID,0.105859,
2010-02-04, 01:05:04,VALID,1002.45,VALID,0,VALID,88.6791,VALID,0,VALID,24.0116,VALID,216,VALID,0.433984,
2010-02-04, 01:06:04,VALID,1002.44,VALID,0,VALID,88.8469,VALID,0,VALID,24.0329,VALID,216,VALID,0.642187,
2010-02-04, 01:07:04,VALID,1002.45,VALID,0,VALID,88.8622,VALID,0,VALID,24.0134,VALID,216,VALID,0.438672,
2010-02-04, 01:08:04,VALID,1002.46,VALID,0,VALID,88.8927,VALID,0,VALID,24.0134,VALID,216,VALID,0.419922,
2010-02-04, 01:09:04,VALID,1002.44,VALID,0,VALID,88.9309,VALID,0,VALID,23.9939,VALID,265,VALID,0.722266,
2010-02-04, 01:10:04,VALID,1002.44,VALID,0,VALID,89.1063,VALID,0,VALID,23.9354,VALID,244,VALID,0.787109,
2010-02-04, 01:11:04,VALID,1002.44,VALID,0,VALID,89.4954,VALID,0,VALID,23.8945,VALID,251,VALID,1.04648,
2010-02-04, 01:12:04,VALID,1002.4,VALID,0,VALID,89.732,VALID,0,VALID,23.836,VALID,246,VALID,1.05273,
2010-02-04, 01:13:04,VALID,1002.4,VALID,0,VALID,89.9761,VALID,0,VALID,23.8378,VALID,235,VALID,0.814062,
2010-02-04, 01:14:04,VALID,1002.4,VALID,0,VALID,90.144,VALID,0,VALID,23.8183,VALID,234,VALID,1.43477,
2010-02-04, 01:15:04,VALID,1002.41,VALID,0,VALID,90.3118,VALID,0,VALID,23.797,VALID,253,VALID,0.391797,
2010-02-04, 01:16:04,VALID,1002.41,VALID,0,VALID,90.4263,VALID,0,VALID,23.7988,VALID,266,VALID,0.679297,
2010-02-04, 01:17:04,VALID,1002.39,VALID,0,VALID,90.4415,VALID,0,VALID,23.7988,VALID,280,VALID,0.759766,
2010-02-04, 01:18:04,VALID,1002.38,VALID,0,VALID,90.4949,VALID,0,VALID,23.7793,VALID,266,VALID,0.662109,
2010-02-04, 01:19:04,VALID,1002.36,VALID,0,VALID,90.5331,VALID,0,VALID,23.7402,VALID,238,VALID,0.603125,
2010-02-04, 01:20:04,VALID,1002.36,VALID,0,VALID,90.6323,VALID,0,VALID,23.6994,VALID,221,VALID,0.542188,
2010-02-04, 01:21:04,VALID,1002.34,VALID,0,VALID,90.6933,VALID,0,VALID,23.7012,VALID,221,VALID,0.0382813,
2010-02-04, 01:22:04,VALID,1002.31,VALID,0,VALID,90.7314,VALID,0,VALID,23.6799,VALID,221,VALID,0.286328,
2010-02-04, 01:23:04,VALID,1002.33,VALID,0,VALID,90.7925,VALID,0,VALID,23.6409,VALID,221,VALID,0,
2010-02-04, 01:24:04,VALID,1002.31,VALID,0,VALID,90.8764,VALID,0,VALID,23.6214,VALID,228,VALID,0,
2010-02-04, 01:25:04,VALID,1002.32,VALID,0,VALID,91.0366,VALID,0,VALID,23.6019,VALID,336,VALID,0,
2010-02-04, 01:26:04,VALID,1002.31,VALID,0,VALID,91.1511,VALID,0,VALID,23.6036,VALID,332,VALID,0,
2010-02-04, 01:27:04,VALID,1002.33,VALID,0,VALID,91.3037,VALID,0,VALID,23.6019,VALID,332,VALID,0,
2010-02-04, 01:28:04,VALID,1002.35,VALID,0,VALID,91.3571,VALID,0,VALID,23.5841,VALID,332,VALID,0,
2010-02-04, 01:29:04,VALID,1002.35,VALID,0,VALID,91.4257,VALID,0,VALID,23.5628,VALID,332,VALID,0,
2010-02-04, 01:30:04,VALID,1002.32,VALID,0,VALID,91.5326,VALID,0,VALID,23.5841,VALID,332,VALID,0,
2010-02-04, 01:31:04,VALID,1002.33,VALID,0,VALID,91.647,VALID,0,VALID,23.5433,VALID,332,VALID,0,
2010-02-04, 01:32:04,VALID,1002.36,VALID,0,VALID,91.7233,VALID,0,VALID,23.5646,VALID,7,VALID,0,
2010-02-04, 01:33:04,VALID,1002.35,VALID,0,VALID,91.8835,VALID,0,VALID,23.5451,VALID,23,VALID,2.70039,
2010-02-04, 01:34:04,VALID,1002.38,VALID,0,VALID,91.1663,VALID,0,VALID,23.7012,VALID,45,VALID,2.26875,
2010-02-04, 01:35:04,VALID,1002.33,VALID,0,VALID,90.0906,VALID,0,VALID,23.9159,VALID,33,VALID,2.35391,
2010-02-04, 01:36:04,VALID,1002.38,VALID,0,VALID,89.8769,VALID,0,VALID,23.9549,VALID,37,VALID,1.00078,
2010-02-04, 01:37:04,VALID,1002.34,VALID,0,VALID,89.9151,VALID,0,VALID,23.9549,VALID,53,VALID,1.02227,
2010-02-04, 01:38:04,VALID,1002.34,VALID,0,VALID,90.0219,VALID,0,VALID,23.9336,VALID,63,VALID,0.667969,
2010-02-04, 01:39:04,VALID,1002.33,VALID,0,VALID,90.0371,VALID,0,VALID,23.914,VALID,83,VALID,1.32695,
2010-02-04, 01:40:04,VALID,1002.34,VALID,0,VALID,90.1516,VALID,0,VALID,23.8768,VALID,64,VALID,0.934375,
2010-02-04, 01:41:04,VALID,1002.31,VALID,0,VALID,90.3652,VALID,0,VALID,23.8378,VALID,34,VALID,1.01875,
2010-02-04, 01:42:04,VALID,1002.29,VALID,0,VALID,89.9303,VALID,0,VALID,23.8183,VALID,69,VALID,1.95859,
2010-02-04, 01:43:04,VALID,1002.31,VALID,0,VALID,88.8164,VALID,0,VALID,23.9744,VALID,65,VALID,1.82422,
2010-02-04, 01:44:04,VALID,1002.31,VALID,0,VALID,88.2747,VALID,0,VALID,24.1696,VALID,74,VALID,1.55391,
2010-02-04, 01:45:04,VALID,1002.26,VALID,0,VALID,87.9237,VALID,0,VALID,24.2476,VALID,82,VALID,1.09141,
2010-02-04, 01:46:04,VALID,1002.29,VALID,0,VALID,87.8169,VALID,0,VALID,24.2671,VALID,50,VALID,0.848828,
2010-02-04, 01:47:04,VALID,1002.28,VALID,0,VALID,87.7483,VALID,0,VALID,24.2671,VALID,57,VALID,0.651172,
2010-02-04, 01:48:04,VALID,1002.29,VALID,0,VALID,87.527,VALID,0,VALID,24.2476,VALID,59,VALID,0.8,
2010-02-04, 01:49:04,VALID,1002.26,VALID,0,VALID,87.2981,VALID,0,VALID,24.2866,VALID,78,VALID,1.4207,
2010-02-04, 01:50:04,VALID,1002.21,VALID,0,VALID,86.4054,VALID,0,VALID,24.3257,VALID,61,VALID,1.36602,
2010-02-04, 01:51:04,VALID,1002.19,VALID,0,VALID,85.3068,VALID,0,VALID,24.3629,VALID,20,VALID,2.26016,
2010-02-04, 01:52:04,VALID,1002.21,VALID,0,VALID,85.6425,VALID,0,VALID,24.4037,VALID,40,VALID,1.52773,
2010-02-04, 01:53:04,VALID,1002.16,VALID,0,VALID,84.4523,VALID,0,VALID,24.4037,VALID,46,VALID,2.40937,
2010-02-04, 01:54:04,VALID,1002.14,VALID,0,VALID,84.5896,VALID,0,VALID,24.4233,VALID,48,VALID,1.84336,
2010-02-04, 01:55:04,VALID,1002.1,VALID,0,VALID,84.1242,VALID,0,VALID,24.4251,VALID,41,VALID,1.91953,
2010-02-04, 01:56:04,VALID,1002.11,VALID,0,VALID,83.9487,VALID,0,VALID,24.3842,VALID,47,VALID,1.99102,
2010-02-04, 01:57:04,VALID,1002.1,VALID,0,VALID,85.2076,VALID,0,VALID,24.3629,VALID,6,VALID,1.15703,
2010-02-04, 01:58:04,VALID,1002.07,VALID,0,VALID,84.7956,VALID,0,VALID,24.3257,VALID,11,VALID,1.71602,
2010-02-04, 01:59:04,VALID,1002.05,VALID,0,VALID,85.116,VALID,0,VALID,24.2866,VALID,348,VALID,1.41406,
2010-02-04, 02:00:04,VALID,1002.05,VALID,0,VALID,85.4899,VALID,0,VALID,24.2281,VALID,360,VALID,0.994141,
2010-02-04, 02:01:04,VALID,1002.04,VALID,0,VALID,85.3297,VALID,0,VALID,24.1909,VALID,348,VALID,1.16719,
2010-02-04, 02:02:04,VALID,1002,VALID,0,VALID,85.7493,VALID,0,VALID,24.15,VALID,350,VALID,1.08594,
2010-02-04, 02:03:04,VALID,1001.98,VALID,0,VALID,85.6654,VALID,0,VALID,24.111,VALID,9,VALID,1.02266,
2010-02-04, 02:04:04,VALID,1001.99,VALID,0,VALID,85.5586,VALID,0,VALID,24.0738,VALID,13,VALID,0.722266,
2010-02-04, 02:05:04,VALID,1001.98,VALID,0,VALID,85.6577,VALID,0,VALID,24.072,VALID,13,VALID,1.18359,
2010-02-04, 02:06:04,VALID,1001.95,VALID,0,VALID,85.7798,VALID,0,VALID,24.0525,VALID,15,VALID,1.29297,
2010-02-04, 02:07:04,VALID,1001.95,VALID,0,VALID,85.9477,VALID,0,VALID,24.0134,VALID,23,VALID,1.08906,
2010-02-04, 02:08:04,VALID,1001.95,VALID,0,VALID,85.7874,VALID,0,VALID,23.9939,VALID,29,VALID,1.15313,
2010-02-04, 02:09:04,VALID,1001.95,VALID,0,VALID,86.23,VALID,0,VALID,23.9939,VALID,46,VALID,0.835156,
2010-02-04, 02:10:04,VALID,1001.96,VALID,0,VALID,86.764,VALID,0,VALID,23.9939,VALID,47,VALID,0.88125,
2010-02-04, 02:11:04,VALID,1001.95,VALID,0,VALID,86.4207,VALID,0,VALID,23.9549,VALID,49,VALID,1.07383,
2010-02-04, 02:12:04,VALID,1001.99,VALID,0,VALID,85.612,VALID,0,VALID,23.9744,VALID,60,VALID,1.35078,
2010-02-04, 02:13:04,VALID,1001.97,VALID,0,VALID,85.6654,VALID,0,VALID,24.0116,VALID,72,VALID,0.465625,
2010-02-04, 02:14:04,VALID,1001.95,VALID,0,VALID,85.4594,VALID,0,VALID,24.0525,VALID,91,VALID,0.971875,
2010-02-04, 02:15:04,VALID,1001.93,VALID,0,VALID,85.9477,VALID,0,VALID,24.072,VALID,100,VALID,1.45313,
2010-02-04, 02:16:04,VALID,1001.92,VALID,0,VALID,85.467,VALID,0,VALID,24.072,VALID,117,VALID,1.38984,
2010-02-04, 02:17:04,VALID,1001.92,VALID,0,VALID,85.7264,VALID,0,VALID,24.111,VALID,110,VALID,1.87148,
2010-02-04, 02:18:04,VALID,1001.92,VALID,0,VALID,83.7427,VALID,0,VALID,24.1696,VALID,74,VALID,2.38438,
2010-02-04, 02:19:04,VALID,1001.9,VALID,0,VALID,82.4304,VALID,0,VALID,24.2866,VALID,83,VALID,1.77656,
2010-02-04, 02:20:04,VALID,1001.9,VALID,0,VALID,82.2931,VALID,0,VALID,24.3842,VALID,82,VALID,1.93516,
2010-02-04, 02:21:04,VALID,1001.86,VALID,0,VALID,81.6369,VALID,0,VALID,24.4037,VALID,82,VALID,2.62617,
2010-02-04, 02:22:04,VALID,1001.83,VALID,0,VALID,80.3704,VALID,0,VALID,24.5209,VALID,85,VALID,2.42812,
2010-02-04, 02:23:04,VALID,1001.85,VALID,0,VALID,79.8898,VALID,0,VALID,24.6575,VALID,64,VALID,2.2707,
2010-02-04, 02:24:04,VALID,1001.83,VALID,0,VALID,81.1868,VALID,0,VALID,24.6965,VALID,108,VALID,1.79414,
2010-02-04, 02:25:04,VALID,1001.85,VALID,0,VALID,81.7209,VALID,0,VALID,24.677,VALID,97,VALID,2.01875,
2010-02-04, 02:26:04,VALID,1001.82,VALID,0,VALID,80.7595,VALID,0,VALID,24.6575,VALID,99,VALID,2.18984,
2010-02-04, 02:27:04,VALID,1001.82,VALID,0,VALID,81.2631,VALID,0,VALID,24.677,VALID,84,VALID,1.83281,
2010-02-04, 02:28:04,VALID,1001.84,VALID,0,VALID,81.7895,VALID,0,VALID,24.638,VALID,79,VALID,1.4543,
2010-02-04, 02:29:04,VALID,1001.82,VALID,0,VALID,81.8582,VALID,0,VALID,24.5599,VALID,101,VALID,1.40117,
2010-02-04, 02:30:04,VALID,1001.81,VALID,0,VALID,81.82,VALID,0,VALID,24.5404,VALID,80,VALID,1.69805,
2010-02-04, 02:31:04,VALID,1001.77,VALID,0,VALID,82.6898,VALID,0,VALID,24.4995,VALID,77,VALID,1.14141,
2010-02-04, 02:32:04,VALID,1001.77,VALID,0,VALID,83.1857,VALID,0,VALID,24.4409,VALID,95,VALID,1.20664,
2010-02-04, 02:33:04,VALID,1001.74,VALID,0,VALID,82.85,VALID,0,VALID,24.4037,VALID,99,VALID,1.44297,
2010-02-04, 02:34:04,VALID,1001.75,VALID,0,VALID,81.8353,VALID,0,VALID,24.3629,VALID,62,VALID,1.29688,
2010-02-04, 02:35:04,VALID,1001.75,VALID,0,VALID,82.6212,VALID,0,VALID,24.4428,VALID,102,VALID,0.621484,
2010-02-04, 02:36:04,VALID,1001.76,VALID,0,VALID,83.3383,VALID,0,VALID,24.4409,VALID,102,VALID,0.825,
2010-02-04, 02:37:04,VALID,1001.73,VALID,0,VALID,81.5378,VALID,0,VALID,24.4233,VALID,125,VALID,0.932422,
2010-02-04, 02:38:04,VALID,1001.72,VALID,0,VALID,82.6364,VALID,0,VALID,24.4623,VALID,134,VALID,0.800391,
2010-02-04, 02:39:04,VALID,1001.73,VALID,0,VALID,82.995,VALID,0,VALID,24.4428,VALID,114,VALID,0.746875,
2010-02-04, 02:40:04,VALID,1001.71,VALID,0,VALID,83.3612,VALID,0,VALID,24.4037,VALID,110,VALID,0.732031,
2010-02-04, 02:41:04,VALID,1001.71,VALID,0,VALID,82.0566,VALID,0,VALID,24.3433,VALID,92,VALID,1.32773,
2010-02-04, 02:42:04,VALID,1001.73,VALID,0,VALID,81.5225,VALID,0,VALID,24.4233,VALID,77,VALID,1.34141,
2010-02-04, 02:43:04,VALID,1001.74,VALID,0,VALID,81.4157,VALID,0,VALID,24.5209,VALID,94,VALID,0.188281,
2010-02-04, 02:44:04,VALID,1001.77,VALID,0,VALID,82.5601,VALID,0,VALID,24.5385,VALID,304,VALID,0.823438,
2010-02-04, 02:45:04,VALID,1001.77,VALID,0,VALID,83.8648,VALID,0,VALID,24.4428,VALID,295,VALID,0.867578,
2010-02-04, 02:46:04,VALID,1001.77,VALID,0,VALID,84.4675,VALID,0,VALID,24.3062,VALID,269,VALID,0.684766,
2010-02-04, 02:47:04,VALID,1001.8,VALID,0,VALID,85.0779,VALID,0,VALID,24.2281,VALID,264,VALID,0.784375,
2010-02-04, 02:48:04,VALID,1001.79,VALID,0,VALID,85.6043,VALID,0,VALID,24.15,VALID,263,VALID,0.683984,
2010-02-04, 02:49:04,VALID,1001.81,VALID,0,VALID,86.2529,VALID,0,VALID,24.0915,VALID,263,VALID,0.325,
2010-02-04, 02:50:04,VALID,1001.8,VALID,0,VALID,86.5504,VALID,0,VALID,24.0311,VALID,233,VALID,0.639063,
2010-02-04, 02:51:04,VALID,1001.79,VALID,0,VALID,86.9853,VALID,0,VALID,23.9939,VALID,232,VALID,0.534375,
2010-02-04, 02:52:04,VALID,1001.81,VALID,0,VALID,87.2829,VALID,0,VALID,23.9744,VALID,306,VALID,0.214844,
2010-02-04, 02:53:04,VALID,1001.8,VALID,0,VALID,87.5117,VALID,0,VALID,23.914,VALID,306,VALID,0,
2010-02-04, 02:54:04,VALID,1001.81,VALID,0,VALID,87.3592,VALID,0,VALID,23.8963,VALID,306,VALID,0.0628906,
2010-02-04, 02:55:04,VALID,1001.8,VALID,0,VALID,87.0463,VALID,0,VALID,23.8768,VALID,306,VALID,0,
2010-02-04, 02:56:04,VALID,1001.79,VALID,0,VALID,88.084,VALID,0,VALID,23.875,VALID,34,VALID,0.916797,
2010-02-04, 02:57:04,VALID,1001.77,VALID,0,VALID,88.4502,VALID,0,VALID,23.8378,VALID,355,VALID,0.760156,
2010-02-04, 02:58:04,VALID,1001.77,VALID,0,VALID,88.8164,VALID,0,VALID,23.7793,VALID,354,VALID,0.780859,
2010-02-04, 02:59:04,VALID,1001.73,VALID,0,VALID,89.0682,VALID,0,VALID,23.7207,VALID,354,VALID,0.469922,
2010-02-04, 03:00:04,VALID,1001.7,VALID,0,VALID,89.2894,VALID,0,VALID,23.6817,VALID,354,VALID,0.152734,
2010-02-04, 03:01:04,VALID,1001.7,VALID,0,VALID,89.4344,VALID,0,VALID,23.6427,VALID,354,VALID,0,
2010-02-04, 03:02:04,VALID,1001.72,VALID,0,VALID,89.2971,VALID,0,VALID,23.6036,VALID,354,VALID,0,
2010-02-04, 03:03:04,VALID,1001.69,VALID,0,VALID,89.2742,VALID,0,VALID,23.6036,VALID,354,VALID,0,
2010-02-04, 03:04:04,VALID,1001.7,VALID,0,VALID,89.4268,VALID,0,VALID,23.6232,VALID,354,VALID,0.176172,
2010-02-04, 03:05:04,VALID,1001.72,VALID,0,VALID,89.03,VALID,0,VALID,23.6232,VALID,45,VALID,1.6043,
2010-02-04, 03:06:04,VALID,1001.71,VALID,0,VALID,88.8774,VALID,0,VALID,23.6622,VALID,61,VALID,0.957812,
2010-02-04, 03:07:04,VALID,1001.71,VALID,0,VALID,88.5341,VALID,0,VALID,23.7012,VALID,59,VALID,0.753906,
2010-02-04, 03:08:04,VALID,1001.72,VALID,0,VALID,88.5036,VALID,0,VALID,23.7207,VALID,59,VALID,0.327734,
2010-02-04, 03:09:04,VALID,1001.7,VALID,0,VALID,88.5265,VALID,0,VALID,23.7207,VALID,59,VALID,0,
2010-02-04, 03:10:04,VALID,1001.7,VALID,0,VALID,88.6104,VALID,0,VALID,23.7189,VALID,59,VALID,0,
2010-02-04, 03:11:04,VALID,1001.72,VALID,0,VALID,88.9843,VALID,0,VALID,23.7597,VALID,59,VALID,0,
2010-02-04, 03:12:04,VALID,1001.73,VALID,0,VALID,88.9766,VALID,0,VALID,23.7793,VALID,68,VALID,0,
2010-02-04, 03:13:04,VALID,1001.76,VALID,0,VALID,88.5875,VALID,0,VALID,23.7988,VALID,84,VALID,0.931641,
2010-02-04, 03:14:04,VALID,1001.74,VALID,0,VALID,88.4807,VALID,0,VALID,23.8378,VALID,71,VALID,0.720312,
2010-02-04, 03:15:04,VALID,1001.73,VALID,0,VALID,88.5417,VALID,0,VALID,23.8768,VALID,71,VALID,0.804297,
2010-02-04, 03:16:04,VALID,1001.75,VALID,0,VALID,87.7483,VALID,0,VALID,23.8768,VALID,75,VALID,0.978516,
2010-02-04, 03:17:04,VALID,1001.73,VALID,0,VALID,86.5046,VALID,0,VALID,23.9354,VALID,84,VALID,0.917578,
2010-02-04, 03:18:04,VALID,1001.77,VALID,0,VALID,86.4741,VALID,0,VALID,24.0311,VALID,84,VALID,0.575781,
2010-02-04, 03:19:04,VALID,1001.75,VALID,0,VALID,86.9166,VALID,0,VALID,24.1305,VALID,84,VALID,0.58125,
2010-02-04, 03:20:04,VALID,1001.77,VALID,0,VALID,86.5123,VALID,0,VALID,24.1287,VALID,104,VALID,0.629687,
2010-02-04, 03:21:05,VALID,1001.79,VALID,0,VALID,86.5275,VALID,0,VALID,24.1482,VALID,104,VALID,0.351563,
2010-02-04, 03:22:04,VALID,1001.8,VALID,0,VALID,86.5657,VALID,0,VALID,24.1696,VALID,104,VALID,0,
2010-02-04, 03:23:04,VALID,1001.79,VALID,0,VALID,87.0006,VALID,0,VALID,24.1891,VALID,104,VALID,0,
2010-02-04, 03:24:05,VALID,1001.84,VALID,0,VALID,87.672,VALID,0,VALID,24.15,VALID,286,VALID,0.482812,
2010-02-04, 03:25:05,VALID,1001.84,VALID,0,VALID,87.7559,VALID,0,VALID,24.0311,VALID,275,VALID,0.609375,
2010-02-04, 03:26:05,VALID,1001.87,VALID,0,VALID,88.1526,VALID,0,VALID,23.9726,VALID,275,VALID,0.491797,
2010-02-04, 03:27:05,VALID,1001.87,VALID,0,VALID,88.4349,VALID,0,VALID,23.9354,VALID,275,VALID,0.281641,
2010-02-04, 03:28:05,VALID,1001.87,VALID,0,VALID,88.6562,VALID,0,VALID,23.9159,VALID,275,VALID,0,
2010-02-04, 03:29:05,VALID,1001.89,VALID,0,VALID,88.9385,VALID,0,VALID,23.875,VALID,275,VALID,0,
2010-02-04, 03:30:05,VALID,1001.89,VALID,0,VALID,89.1368,VALID,0,VALID,23.8768,VALID,275,VALID,0,
2010-02-04, 03:31:05,VALID,1001.91,VALID,0,VALID,89.2513,VALID,0,VALID,23.8573,VALID,276,VALID,0.520703,
2010-02-04, 03:32:05,VALID,1001.93,VALID,0,VALID,89.5183,VALID,0,VALID,23.8378,VALID,289,VALID,0.894531,
2010-02-04, 03:33:05,VALID,1001.96,VALID,0,VALID,89.7091,VALID,0,VALID,23.7579,VALID,288,VALID,0.975781,
2010-02-04, 03:34:05,VALID,1001.95,VALID,0,VALID,90.0371,VALID,0,VALID,23.6994,VALID,283,VALID,1.0457,
2010-02-04, 03:35:05,VALID,1001.97,VALID,0,VALID,90.0753,VALID,0,VALID,23.6817,VALID,256,VALID,0.987109,
2010-02-04, 03:36:05,VALID,1002,VALID,0,VALID,90.0906,VALID,0,VALID,23.6019,VALID,247,VALID,1.32266,
2010-02-04, 03:37:05,VALID,1001.99,VALID,0,VALID,90.1134,VALID,0,VALID,23.6036,VALID,236,VALID,1.34023,
2010-02-04, 03:38:05,VALID,1002,VALID,0,VALID,90.06,VALID,0,VALID,23.5841,VALID,244,VALID,1.2793,
2010-02-04, 03:39:05,VALID,1002.02,VALID,0,VALID,90.0753,VALID,0,VALID,23.5841,VALID,254,VALID,1.04375,
2010-02-04, 03:40:05,VALID,1002.03,VALID,0,VALID,90.2584,VALID,0,VALID,23.6036,VALID,262,VALID,1.08828,
2010-02-04, 03:41:05,VALID,1002.05,VALID,0,VALID,90.2737,VALID,0,VALID,23.5646,VALID,257,VALID,1.08281,
2010-02-04, 03:42:05,VALID,1002.04,VALID,0,VALID,90.2966,VALID,0,VALID,23.5646,VALID,256,VALID,0.986328,
2010-02-04, 03:43:05,VALID,1002.04,VALID,0,VALID,90.4339,VALID,0,VALID,23.5628,VALID,250,VALID,0.584766,
2010-02-04, 03:44:05,VALID,1002.1,VALID,0,VALID,90.5483,VALID,0,VALID,23.5841,VALID,263,VALID,0.718359,
2010-02-04, 03:45:05,VALID,1002.07,VALID,0,VALID,90.5788,VALID,0,VALID,23.5646,VALID,251,VALID,0.684766,
2010-02-04, 03:46:05,VALID,1002.07,VALID,0,VALID,90.5407,VALID,0,VALID,23.5451,VALID,248,VALID,0.680469,
2010-02-04, 03:47:05,VALID,1002.1,VALID,0,VALID,90.5254,VALID,0,VALID,23.5664,VALID,262,VALID,0.709375,
2010-02-04, 03:48:05,VALID,1002.11,VALID,0,VALID,90.3805,VALID,0,VALID,23.5433,VALID,234,VALID,0.839063,